Temp
59 59 57 57 56 56 56 56 56 55 55 54 54 54 53 53 52 51 51 50 49 49 49 48 48 49 48 48 48 48 45 43 40 44 47 48 49 48 49 49 50 50 51
54 55 55 55 55 55 55 53 53 52 53 53 54 53 53 53 53 52 51 51 49 48 48 47 47 49 48 48 47 45 45 44 41 38 43 44 44 47 45 45 48 52 50
55 54 53 52 51 51 51 51 51 50 51 50 51 50 50 50 50 50 50 50 50 50 49 48 47 46 44 45 46 44 43 43 42 39 39 42 43 45 43 44 45 46 49
53 51 49 49 50 50 49 49 49 49 48 49 49 48 48 49 50 49 49 46 44 44 44 47 48 46 44 43 43 44 43 41 40 39 38 38 39 41 41 39 39 43 42
50 49 47 47 48 47 46 46 47 46 47 46 46 46 46 47 50 47 45 44 43 43 43 44 44 47 46 45 44 41 41 39 39 37 36 36 35 35 35 39 39 40 40
47 46 47 47 46 45 45 44 44 44 44 44 44 44 44 47 44 43 42 41 42 42 41 42 44 44 44 43 42 42 43 40 38 36 36 35 36 36 36 36 36 34 32
46 46 46 46 45 44 45 44 43 42 42 41 41 42 41 43 43 41 40 41 40 40 39 40 42 45 43 44 40 39 38 39 36 39 36 37 36 37 37 35 35 34 34
45 45 45 44 44 44 43 42 41 41 40 40 40 41 41 43 41 40 40 40 39 39 39 40 40 40 42 42 41 40 40 39 39 38 37 38 39 39 38 37 36 36 37
44 43 44 43 42 42 40 39 40 39 39 39 40 38 38 37 39 39 38 37 36 36 37 37 37 39 40 41 39 36 38 38 41 40 40 39 39 38 38 36 33 32 31
43 43 43 43 41 40 39 38 38 38 39 39 38 37 37 36 37 37 36 35 32 32 33 33 35 36 38 39 37 35 34 34 35 36 37 37 38 38 37 36 35 32 32
44 43 42 42 40 40 39 37 37 36 36 34 33 33 34 34 34 35 35 32 31 29 29 30 32 34 37 38 36 35 34 34 33 33 33 33 34 35 36 37 37 35 32
43 41 41 40 40 40 36 36 35 34 31 30 29 29 30 31 33 33 34 33 33 28 27 30 30 33 35 36 33 33 33 32 32 32 31 32 32 33 34 35 36 36 36
40 39 38 39 39 37 34 32 31 30 28 27 26 25 26 28 28 32 32 32 31 28 29 30 30 32 34 33 32 33 32 32 32 30 30 31 33 34 33 33 33 34 34
37 37 37 35 33 34 34 32 29 27 26 25 24 23 23 25 26 27 28 27 29 28 29 29 28 32 32 32 32 32 32 32 32 31 31 32 32 32 32 33 32 33 33
35 35 34 33 32 31 32 30 28 28 28 25 24 23 21 21 24 28 28 27 27 28 27 28 32 32 31 32 32 32 32 32 31 32 32 31 31 32 32 33 33 33 32
31 31 30 30 30 29 27 27 31 30 31 30 29 26 26 27 28 29 30 31 30 29 27 31 31 31 31 32 31 31 31 31 31 31 30 30 30 31 31 32 32 32 31
29 30 29 29 28 26 26 25 22 26 29 29 28 28 28 27 28 28 29 29 29 28 29 30 30 31 31 31 32 31 30 31 31 31 30 30 30 30 30 31 31 31 31
29 28 28 27 26 26 25 25 24 21 20 20 26 26 26 26 26 27 28 28 24 26 26 28 29 30 31 31 30 30 30 31 31 30 30 30 30 30 30 30 30 30 31
28 28 27 26 27 26 26 25 24 22 20 20 21 22 22 24 25 26 27 23 22 23 25 26 28 29 30 30 30 30 30 30 29 30 30 30 31 30 29 30 30 30 31
28 26 25 27 27 25 25 23 22 21 20 19 19 19 19 19 16 18 21 21 23 23 24 25 27 28 29 30 30 30 30 29 30 29 28 27 28 30 29 29 29 29 30
26 26 25 28 26 25 23 22 21 21 19 19 19 20 19 17 17 18 20 20 21 22 23 25 26 26 27 28 29 29 29 28 28 28 28 27 26 26 27 30 30 30 30
25 25 26 25 26 24 22 23 21 20 20 19 19 19 18 18 17 18 18 19 19 23 24 25 26 27 27 27 27 28 28 28 27 26 25 25 25 25 26 26 28 29 29
24 25 25 25 24 22 22 22 20 20 19 19 18 17 17 17 16 16 16 17 19 20 22 23 24 25 27 28 29 29 28 27 27 27 23 22 23 23 24 25 28 28 28
25 25 24 23 22 22 21 19 20 19 19 18 18 17 16 16 15 15 16 17 18 19 19 21 21 23 24 25 27 27 28 26 26 26 24 22 21 22 22 24 25 26 28
25 23 22 21 21 20 19 19 18 18 18 18 17 16 16 15 16 16 16 16 17 16 17 19 19 21 23 22 23 25 25 24 21 21 23 23 20 19 20 22 21 25 28
24 23 21 21 20 19 18 17 17 18 17 17 16 15 15 14 14 14 15 15 15 15 15 16 18 18 19 20 23 24 24 23 21 18 19 22 21 19 19 19 21 23 26
MSLP
1020.18 1020.42 1020.61 1020.93 1020.95 1020.70 1020.35 1019.90 1019.67 1019.55 1019.29 1019.03 1018.84 1018.64 1018.49 1018.28 1018.03 1017.82 1017.58 1017.51 1017.38 1017.16 1016.99 1016.77 1016.60 1016.66 1016.58 1016.42 1016.26 1016.19 1016.36 1016.64 1016.30 1015.54 1015.49 1015.43 1015.12 1014.79 1014.56 1014.40 1014.40 1014.43 1014.18
1021.09 1021.20 1021.20 1021.12 1021.04 1020.81 1020.57 1020.58 1020.33 1020.08 1019.65 1019.37 1018.94 1018.65 1018.35 1018.04 1017.71 1017.37 1017.06 1016.80 1016.51 1016.32 1016.12 1015.95 1015.65 1015.52 1015.39 1015.49 1015.49 1015.52 1015.67 1015.95 1016.22 1015.95 1015.73 1015.40 1015.27 1015.10 1014.70 1014.54 1014.34 1013.99 1013.66
1021.74 1021.80 1021.84 1021.92 1021.83 1021.60 1021.24 1020.96 1020.68 1020.35 1020.02 1019.55 1019.21 1018.92 1018.59 1018.23 1017.83 1017.53 1017.12 1016.62 1016.05 1015.47 1015.05 1014.86 1014.67 1014.72 1014.59 1014.50 1014.60 1014.83 1015.16 1015.37 1015.52 1015.55 1015.31 1015.33 1015.05 1014.99 1014.67 1014.37 1013.99 1013.57 1013.20
1022.66 1022.64 1022.61 1022.52 1022.31 1022.04 1021.77 1021.49 1021.12 1020.68 1020.16 1019.65 1019.28 1018.83 1018.43 1018.03 1017.59 1017.24 1016.80 1016.58 1016.49 1016.10 1015.42 1014.59 1013.61 1013.46 1013.47 1013.69 1013.82 1014.01 1014.32 1014.58 1014.83 1014.93 1014.83 1014.95 1014.91 1014.71 1014.64 1014.35 1013.52 1013.12 1012.55
1023.24 1023.21 1023.20 1023.05 1022.84 1022.57 1022.27 1021.90 1021.44 1020.96 1020.53 1020.11 1019.59 1019.08 1018.60 1018.03 1017.35 1017.01 1016.80 1016.41 1015.92 1015.46 1015.29 1014.36 1013.83 1012.92 1012.34 1012.33 1012.71 1013.07 1013.54 1013.78 1014.05 1014.26 1014.17 1014.39 1014.42 1014.46 1014.36 1014.07 1013.24 1012.85 1012.22
1023.81 1023.78 1023.61 1023.43 1023.18 1022.86 1022.52 1022.09 1021.64 1021.19 1020.73 1020.31 1019.75 1019.16 1018.48 1017.94 1017.38 1016.85 1016.45 1016.10 1015.55 1015.03 1014.46 1013.78 1013.23 1012.73 1012.38 1011.59 1011.55 1011.82 1012.36 1012.85 1013.11 1013.48 1013.43 1013.35 1013.35 1013.72 1013.81 1013.56 1013.05 1012.63 1011.81
1024.16 1024.09 1023.92 1023.67 1023.38 1022.97 1022.55 1022.07 1021.64 1021.19 1020.68 1020.14 1019.73 1019.23 1018.53 1017.81 1017.21 1016.79 1016.53 1015.99 1015.19 1014.48 1013.83 1013.14 1012.42 1011.88 1011.35 1010.93 1010.57 1010.79 1011.29 1011.58 1012.00 1012.40 1012.39 1012.29 1012.33 1012.60 1012.83 1012.67 1012.40 1012.09 1011.22
1024.32 1024.34 1024.12 1023.80 1023.37 1023.00 1022.63 1022.21 1021.75 1021.26 1020.63 1020.16 1019.47 1018.92 1018.36 1017.77 1017.31 1016.82 1016.23 1015.49 1014.68 1013.99 1013.40 1012.69 1011.89 1011.05 1010.69 1010.42 1009.87 1009.72 1010.00 1010.37 1010.83 1011.22 1011.34 1011.37 1011.57 1011.77 1011.90 1011.88 1011.62 1011.17 1010.48
1024.50 1024.44 1024.22 1023.89 1023.45 1023.07 1022.73 1022.28 1021.80 1021.15 1020.67 1019.94 1019.35 1018.89 1018.39 1017.80 1017.23 1016.69 1016.03 1015.18 1014.45 1013.66 1013.03 1012.53 1011.83 1010.46 1009.70 1009.31 1008.98 1008.70 1008.93 1009.21 1009.57 1009.90 1010.06 1010.34 1010.66 1010.82 1010.98 1011.09 1010.65 1010.53 1009.04
1024.65 1024.58 1024.36 1023.97 1023.64 1023.25 1022.75 1022.29 1022.02 1021.49 1020.48 1019.94 1019.41 1019.01 1018.49 1017.77 1017.11 1016.59 1016.14 1015.31 1014.23 1013.34 1012.46 1011.81 1010.99 1010.06 1008.70 1008.25 1007.99 1007.88 1008.05 1008.36 1008.93 1009.22 1009.27 1009.44 1009.73 1009.77 1009.83 1009.88 1009.76 1009.26 1008.69
1024.81 1024.69 1024.39 1024.08 1023.78 1023.26 1022.83 1022.63 1022.03 1021.43 1020.72 1020.22 1019.76 1019.23 1018.49 1017.95 1017.17 1016.54 1015.97 1015.16 1014.25 1013.08 1012.21 1010.87 1009.88 1008.94 1007.59 1006.86 1006.58 1006.76 1007.07 1007.76 1008.17 1008.62 1008.87 1009.02 1009.01 1008.90 1008.77 1008.59 1008.41 1008.26 1007.78
1025.05 1024.81 1024.52 1024.19 1023.83 1023.39 1023.25 1022.64 1022.14 1021.56 1021.09 1020.50 1019.89 1019.09 1018.49 1017.79 1017.07 1016.29 1015.45 1014.72 1013.97 1013.19 1011.71 1010.32 1008.97 1007.73 1006.32 1005.69 1005.84 1005.96 1006.59 1007.24 1007.71 1008.10 1008.15 1008.23 1008.13 1007.93 1007.70 1007.52 1007.30 1007.02 1006.62
1025.27 1024.94 1024.67 1024.27 1023.98 1023.86 1023.36 1022.74 1022.21 1021.99 1021.52 1020.78 1020.22 1019.36 1018.31 1017.55 1016.78 1015.88 1014.97 1014.03 1013.02 1012.01 1010.84 1009.33 1007.69 1005.63 1004.51 1004.62 1004.94 1005.43 1006.17 1006.72 1007.13 1007.24 1007.28 1007.36 1007.20 1006.95 1006.85 1006.70 1006.31 1005.89 1005.32
1025.48 1025.20 1024.79 1024.49 1024.27 1023.90 1023.51 1023.10 1022.70 1022.33 1021.74 1021.08 1020.32 1019.45 1018.42 1017.45 1016.56 1015.56 1014.46 1013.26 1011.98 1010.63 1009.24 1007.63 1006.04 1003.56 1003.59 1004.13 1004.77 1005.28 1005.72 1006.07 1006.34 1006.46 1006.61 1006.65 1006.55 1006.44 1006.23 1005.84 1005.48 1004.89 1004.27
1025.81 1025.48 1025.21 1024.89 1024.45 1023.86 1023.59 1023.28 1022.79 1022.43 1022.14 1021.28 1020.56 1019.75 1018.72 1017.44 1016.58 1015.55 1014.29 1012.83 1011.42 1009.74 1008.06 1006.04 1004.45 1004.09 1004.11 1004.24 1004.57 1004.91 1005.29 1005.48 1005.78 1006.06 1006.11 1006.13 1006.10 1005.90 1005.54 1005.07 1004.74 1004.27 1003.68
1026.20 1025.88 1025.52 1025.09 1024.53 1024.23 1023.54 1022.48 1022.67 1022.23 1021.64 1021.06 1020.46 1019.76 1018.65 1017.73 1016.44 1015.17 1013.81 1012.41 1010.71 1008.67 1006.42 1004.48 1003.98 1003.62 1003.79 1004.00 1004.28 1004.62 1004.94 1005.20 1005.51 1005.64 1005.77 1005.81 1005.76 1005.54 1005.17 1004.70 1004.26 1003.81 1003.22
1026.52 1026.01 1025.64 1025.18 1024.89 1024.35 1023.78 1023.17 1021.84 1020.40 1021.17 1020.77 1020.12 1019.24 1018.54 1017.48 1016.32 1015.10 1013.73 1012.22 1010.51 1008.45 1005.71 1005.05 1004.01 1003.96 1003.90 1003.98 1004.09 1004.45 1004.67 1004.99 1005.15 1005.53 1005.71 1005.74 1005.61 1005.35 1005.00 1004.45 1003.90 1003.42 1002.88
1026.48 1026.09 1025.66 1025.50 1025.04 1024.42 1023.90 1023.23 1022.70 1021.90 1020.67 1019.70 1019.45 1019.02 1018.35 1017.51 1016.47 1015.23 1013.82 1012.27 1010.67 1009.03 1007.76 1006.27 1005.22 1004.30 1004.22 1004.21 1004.53 1004.86 1005.01 1005.41 1005.67 1005.76 1005.80 1005.67 1005.50 1005.22 1004.87 1004.46 1003.89 1003.26 1002.58
1026.42 1026.04 1025.83 1025.47 1024.83 1024.35 1023.77 1023.19 1022.67 1022.08 1021.34 1020.34 1019.28 1018.67 1018.29 1017.67 1016.68 1015.43 1014.17 1013.17 1012.02 1010.78 1009.61 1008.37 1007.24 1006.30 1005.86 1005.77 1005.72 1005.59 1005.70 1005.81 1005.99 1006.03 1005.90 1005.68 1005.55 1005.28 1004.92 1004.48 1003.91 1003.17 1002.53
1026.49 1026.12 1025.81 1025.20 1024.53 1024.17 1023.70 1023.14 1022.56 1021.96 1021.28 1020.56 1019.80 1019.08 1018.30 1017.68 1016.72 1015.68 1014.64 1013.78 1012.84 1011.91 1010.83 1009.71 1008.79 1008.07 1007.26 1006.74 1006.47 1006.36 1006.40 1006.43 1006.52 1006.49 1006.50 1006.41 1006.09 1005.59 1005.19 1004.73 1004.10 1003.43 1002.69
1026.51 1026.05 1025.66 1024.88 1024.48 1024.15 1023.77 1023.24 1022.59 1021.94 1021.25 1020.59 1019.93 1019.29 1018.86 1018.21 1017.23 1016.30 1015.25 1014.47 1013.74 1012.87 1011.79 1010.72 1010.09 1009.37 1008.79 1008.05 1007.64 1007.32 1007.26 1007.17 1007.08 1007.15 1007.18 1007.04 1006.61 1006.12 1005.65 1005.15 1004.49 1003.74 1002.97
1026.57 1026.06 1025.35 1024.91 1024.39 1024.13 1023.80 1023.21 1022.59 1021.93 1021.25 1020.51 1019.74 1019.12 1018.62 1018.08 1017.47 1016.79 1015.99 1015.19 1014.44 1013.60 1012.85 1011.82 1010.87 1010.29 1009.74 1009.24 1008.76 1008.12 1007.95 1007.78 1007.64 1007.67 1007.78 1007.49 1007.11 1006.55 1006.07 1005.53 1004.81 1004.07 1003.34
1026.45 1025.72 1025.26 1024.86 1024.51 1024.06 1023.65 1023.17 1022.58 1021.91 1021.20 1020.51 1019.74 1019.03 1018.49 1017.97 1017.47 1016.93 1016.36 1015.66 1014.86 1014.07 1013.37 1012.70 1011.74 1011.00 1010.45 1009.89 1009.37 1009.02 1008.52 1008.18 1008.14 1008.08 1008.18 1008.04 1007.79 1007.23 1006.64 1005.99 1005.17 1004.42 1003.69
1026.06 1025.58 1025.26 1024.95 1024.50 1024.04 1023.57 1023.14 1022.57 1021.91 1021.23 1020.42 1019.67 1019.08 1018.50 1017.92 1017.37 1016.85 1016.26 1015.72 1015.13 1014.40 1013.78 1013.15 1012.55 1011.86 1011.24 1010.49 1009.85 1009.45 1009.10 1008.85 1008.59 1008.48 1008.43 1008.31 1008.00 1007.55 1007.03 1006.51 1005.84 1005.09 1004.23
1025.88 1025.52 1025.27 1024.98 1024.53 1024.03 1023.60 1023.09 1022.57 1021.89 1021.14 1020.41 1019.70 1019.13 1018.55 1017.94 1017.24 1016.62 1016.12 1015.64 1015.10 1014.58 1013.99 1013.42 1012.90 1012.21 1011.63 1011.20 1010.57 1009.82 1009.28 1009.02 1008.86 1008.72 1008.60 1008.38 1008.08 1007.86 1007.58 1007.09 1006.54 1005.56 1004.66
1025.77 1025.49 1025.31 1024.93 1024.53 1024.20 1023.74 1023.17 1022.54 1021.82 1021.13 1020.40 1019.76 1019.21 1018.54 1017.88 1017.28 1016.62 1015.93 1015.36 1014.86 1014.42 1014.02 1013.50 1012.88 1012.30 1011.80 1011.41 1010.82 1010.36 1009.88 1009.50 1009.21 1009.02 1008.88 1008.60 1008.39 1008.25 1007.85 1007.45 1006.91 1006.25 1005.22
Wind_Speed
5 4 7 7 8 9 8 7 5 6 6 7 8 8 8 9 8 8 8 10 11 11 11 11 12 11 9 8 7 7 6 4 9 9 9 10 10 7 6 6 6 8 9
9 8 7 7 9 10 12 14 13 13 12 13 12 13 13 13 12 11 11 12 12 13 13 12 12 8 11 9 7 9 8 8 8 13 11 10 11 12 7 9 9 10 9
10 10 9 11 11 12 12 12 11 11 12 11 11 11 12 13 14 14 15 16 15 15 13 14 14 12 11 9 8 7 7 6 7 9 10 9 9 10 11 10 10 10 9
9 9 9 9 11 11 12 12 12 12 13 13 12 12 11 13 14 14 14 13 15 16 18 19 14 14 13 9 7 8 8 8 7 9 9 9 8 7 8 12 12 8 7
10 10 10 10 10 10 11 12 12 12 12 13 14 14 14 13 10 12 13 14 14 15 17 15 17 18 15 14 9 10 7 7 8 9 10 8 8 7 8 9 12 11 10
9 9 10 11 12 11 11 12 12 13 12 13 14 15 14 11 16 21 15 12 15 15 16 16 15 19 19 19 19 18 13 11 12 10 11 13 13 8 7 8 9 9 10
8 9 10 11 11 11 12 13 13 13 13 13 14 15 17 16 18 16 18 14 15 15 16 16 15 14 16 17 19 18 18 18 19 14 16 15 14 10 10 10 9 10 12
8 9 10 12 12 13 13 13 13 13 12 14 14 14 16 14 22 24 25 17 15 16 16 18 18 18 18 18 15 13 12 12 14 11 15 15 13 11 11 10 11 13 15
9 10 11 12 13 13 14 13 14 13 15 14 13 16 17 18 24 25 23 16 14 17 15 18 20 21 22 24 15 13 10 10 11 18 18 17 15 16 15 9 10 11 14
9 10 12 12 12 14 13 12 13 15 15 14 16 15 19 18 23 26 24 14 16 14 15 18 25 27 27 28 16 13 11 9 8 7 7 9 10 10 14 11 9 12 10
10 11 11 12 13 13 12 12 13 15 15 14 15 15 16 16 18 26 27 17 14 12 15 16 15 31 31 29 19 11 10 5 4 4 4 6 8 8 8 9 9 9 10
11 12 12 12 11 11 15 13 14 14 15 15 16 14 13 15 21 24 29 27 25 17 17 17 19 33 32 22 15 12 10 6 4 5 6 7 7 7 7 7 8 9 10
12 12 12 12 11 12 13 14 11 13 13 13 12 14 14 13 13 27 27 30 30 19 16 26 36 40 30 16 14 11 8 6 6 7 6 7 6 5 5 5 8 11 13
12 12 11 12 13 12 10 10 11 11 12 12 12 13 14 14 14 13 15 16 24 22 22 21 26 9 7 6 6 8 6 6 6 5 5 3 2 3 5 6 6 7 8
12 11 11 10 12 12 11 10 11 10 13 13 13 12 14 15 14 26 25 18 19 21 26 18 7 2 2 3 4 4 5 5 5 4 4 3 4 4 5 4 5 6 7
11 9 9 10 10 10 12 13 14 18 24 25 26 18 14 26 32 34 34 34 37 34 21 6 4 5 4 3 4 4 4 4 3 2 1 2 3 3 4 5 5 5 6
9 10 9 9 10 11 11 12 16 17 21 22 26 26 29 29 32 32 34 35 31 31 10 8 5 1 2 2 3 2 2 2 2 1 1 1 2 3 4 5 5 5 6
9 9 8 9 10 10 11 11 11 13 15 15 18 22 24 30 32 32 32 26 16 19 14 12 10 9 4 7 7 6 7 5 4 2 1 2 1 2 3 5 6 6 7
8 7 9 9 9 10 11 11 11 12 13 13 14 14 15 25 30 29 28 12 12 12 13 13 13 10 8 7 6 5 5 4 2 3 5 5 4 4 4 5 6 9 9
8 10 9 10 9 10 10 11 11 12 12 12 12 12 12 15 14 13 12 12 12 12 12 12 11 11 9 7 6 6 5 6 6 6 6 6 7 6 5 7 7 8 7
7 8 11 8 9 9 10 11 11 11 12 11 11 11 15 12 13 12 12 11 11 13 13 10 10 10 10 10 8 5 5 5 4 5 5 5 5 5 5 7 7 8 8
7 8 8 9 9 9 10 11 11 11 12 12 12 11 15 9 10 11 12 11 11 11 11 12 9 9 8 9 10 8 5 5 5 5 5 5 6 5 6 6 7 8 8
7 8 9 9 9 10 10 10 11 11 12 12 12 11 10 10 9 10 10 11 11 10 10 11 10 9 8 8 7 7 8 5 5 5 5 5 5 6 7 7 9 8 9
7 8 9 9 9 10 10 11 11 13 13 13 12 11 11 11 10 10 10 9 10 10 9 9 9 12 12 10 6 6 5 3 4 5 6 4 4 6 6 7 8 11 9
7 7 8 9 9 9 10 11 11 12 12 12 11 11 11 11 11 11 9 9 9 9 10 9 9 11 12 15 14 11 10 5 4 5 5 6 5 7 6 6 8 10 11
7 7 7 8 8 9 10 11 11 12 12 12 11 11 11 11 11 11 10 10 9 9 11 9 10 13 12 10 13 15 12 7 5 6 5 6 5 5 5 6 9 8 10
Wind_Direction
56 355 350 348 324 308 305 320 304 281 276 273 275 281 283 281 275 271 259 238 246 250 246 244 247 250 258 257 255 255 261 264 280 287 291 296 294 311 315 321 319 305 289
23 4 348 345 343 343 2 7 4 3 354 347 338 327 318 311 304 292 281 276 258 252 250 247 247 240 244 250 241 237 243 240 254 269 274 279 283 296 301 298 287 278 277
7 6 9 4 359 349 348 349 346 338 335 332 330 325 319 321 318 314 315 310 296 280 260 248 246 241 242 239 239 224 221 228 238 255 265 271 275 282 291 286 279 274 274
4 360 3 355 351 350 349 347 341 336 331 328 323 313 309 307 308 305 302 315 315 310 316 304 259 234 232 233 232 233 223 234 238 257 262 265 268 273 273 283 279 262 272
3 1 357 358 350 346 346 340 335 333 332 336 328 321 321 317 308 317 316 307 308 308 302 284 298 286 236 223 223 229 225 237 246 250 258 256 255 262 257 271 278 286 282
2 358 353 351 346 341 336 331 328 326 327 319 314 311 309 306 303 297 296 315 311 308 303 296 289 287 284 240 227 225 217 230 240 247 256 255 257 249 252 257 272 281 291
355 355 345 342 334 331 332 326 328 327 321 321 323 318 312 310 314 334 330 317 307 301 298 295 289 284 272 268 221 215 217 220 231 243 254 254 265 258 265 264 264 267 269
354 347 340 337 331 332 329 330 326 320 321 320 311 316 318 319 325 326 317 313 309 306 305 305 294 281 274 270 245 216 217 221 230 227 240 252 253 262 260 260 266 276 277
355 342 338 332 334 331 329 328 325 326 322 312 319 325 318 319 315 324 318 317 315 308 313 315 311 290 282 271 242 231 228 230 220 222 231 241 241 246 251 265 261 267 276
348 343 333 334 332 328 327 328 335 317 314 324 320 322 318 318 319 324 332 317 311 309 308 305 302 295 277 269 235 217 215 220 218 246 252 251 249 249 244 242 253 260 270
343 337 331 336 332 325 334 336 322 327 319 325 323 321 315 321 320 319 322 315 309 312 309 305 301 298 279 269 209 204 205 189 211 210 238 255 251 251 247 242 235 246 262
341 333 335 333 333 340 334 328 324 329 327 326 324 322 319 316 317 319 317 316 319 312 305 300 296 294 276 229 198 196 197 213 224 235 240 245 245 243 243 239 246 250 250
334 335 333 334 340 337 331 325 333 334 328 322 326 318 317 319 316 316 319 318 314 308 300 296 298 289 260 206 191 182 196 210 226 229 234 242 239 237 256 261 258 256 257
334 334 333 337 338 331 327 333 329 327 324 323 320 319 318 319 319 320 316 314 315 311 304 300 297 262 175 159 174 204 206 210 217 225 230 237 245 238 254 257 269 280 280
335 334 337 336 329 324 333 327 325 322 321 323 323 322 322 319 318 323 323 324 315 308 306 298 263 232 199 186 178 176 192 197 211 219 229 241 251 258 267 268 275 283 283
335 333 333 327 327 333 326 321 322 319 327 327 329 327 323 323 326 327 326 325 320 316 308 294 292 226 197 191 186 183 183 185 198 177 213 241 265 279 286 290 278 282 290
331 330 326 328 332 328 328 325 323 327 330 331 333 332 333 331 332 331 328 327 331 331 327 348 275 300 248 209 179 169 144 128 112 176 163 252 270 283 301 306 302 301 307
327 324 331 333 323 324 323 323 324 325 327 329 333 334 336 337 336 330 331 334 336 345 352 348 4 7 45 46 57 65 63 49 44 19 336 290 301 317 326 327 319 316 320
333 332 336 319 318 323 323 325 326 326 322 321 326 330 336 340 333 331 333 337 338 343 344 352 354 13 22 48 40 37 41 36 37 20 16 13 10 352 350 335 326 327 325
332 325 326 313 325 329 327 328 329 323 324 325 326 329 334 336 330 328 333 339 342 343 340 349 353 0 357 4 31 41 39 27 21 32 19 3 351 347 353 342 336 332 330
320 328 311 313 328 332 331 330 322 324 323 324 324 326 332 328 321 330 333 339 339 340 339 343 350 357 356 357 11 16 27 4 28 28 12 353 335 340 349 343 336 335 334
327 314 312 327 329 333 330 322 325 323 324 325 324 325 327 323 325 329 329 332 331 332 337 335 342 349 351 352 356 350 9 355 24 25 1 352 340 341 347 340 339 335 337
309 305 329 326 330 327 326 330 326 327 325 324 323 324 327 324 323 323 323 322 322 327 331 335 338 343 344 340 342 342 338 21 19 15 9 341 336 349 341 335 338 338 341
305 329 328 330 325 324 331 329 328 327 326 324 325 326 323 319 317 313 313 319 318 322 327 329 330 334 341 338 343 343 346 348 359 4 353 340 335 339 330 345 342 336 333
317 326 336 326 324 329 328 329 326 325 326 327 328 329 326 322 317 315 315 313 313 314 315 324 322 323 335 335 335 337 330 15 16 7 350 332 339 334 346 345 331 326 333
322 338 326 324 323 332 326 326 324 324 327 326 329 325 322 319 315 313 310 308 306 307 309 304 302 310 324 327 326 341 355 344 350 14 350 328 336 339 336 329 331 329 325